Time,TemperatureF,DewpointF,PressureIn,WindDirection,WindDirectionDegrees,WindSpeedMPH,WindSpeedGustMPH,Humidity,HourlyPrecipIn,Conditions,Clouds,dailyrainin,SoftwareType,DateUTC
2014-08-20 00:01:00,63.0,59.7,29.86,East,99,0.0,0.0,89,0.00,,---,0.00,VWS V13.01,2014-08-20 07:01:00,
2014-08-20 00:06:00,63.0,59.7,29.86,ESE,117,0.0,0.0,89,0.00,,---,0.00,VWS V13.01,2014-08-20 07:06:00,
2014-08-20 00:11:00,63.0,59.7,29.86,SE,143,0.0,0.0,89,0.00,,---,0.00,VWS V13.01,2014-08-20 07:11:00,
2014-08-20 00:16:00,63.0,59.7,29.86,ESE,123,0.0,0.0,89,0.00,,---,0.00,VWS V13.01,2014-08-20 07:16:00,
2014-08-20 00:21:00,63.0,59.4,29.87,SE,128,0.0,0.0,88,0.00,,---,0.00,VWS V13.01,2014-08-20 07:21:00,
2014-08-20 00:26:00,63.0,59.4,29.87,East,91,0.0,0.0,88,0.00,,---,0.00,VWS V13.01,2014-08-20 07:26:00,
2014-08-20 00:31:00,63.0,59.4,29.86,ESE,119,0.0,0.0,88,0.00,,---,0.00,VWS V13.01,2014-08-20 07:31:00,
2014-08-20 00:36:00,63.0,59.4,29.86,ESE,111,0.0,0.0,88,0.00,,---,0.00,VWS V13.01,2014-08-20 07:36:00,
2014-08-20 00:41:00,63.0,59.1,29.86,ESE,109,0.0,0.0,87,0.00,,---,0.00,VWS V13.01,2014-08-20 07:41:00,
2014-08-20 00:46:00,63.0,59.1,29.87,ESE,107,0.0,0.0,87,0.00,,---,0.00,VWS V13.01,2014-08-20 07:46:00,
2014-08-20 00:51:00,63.0,59.4,29.86,SE,144,0.0,0.0,88,0.00,,---,0.00,VWS V13.01,2014-08-20 07:51:00,
2014-08-20 00:56:00,63.0,59.4,29.86,ESE,110,0.0,0.0,88,0.00,,---,0.00,VWS V13.01,2014-08-20 07:56:00,
2014-08-20 01:01:00,63.0,59.4,29.86,SE,132,0.0,0.0,88,0.00,,---,0.00,VWS V13.01,2014-08-20 08:01:00,
2014-08-20 01:06:00,63.0,59.4,29.86,SE,131,0.0,0.0,88,0.00,,---,0.00,VWS V13.01,2014-08-20 08:06:00,
2014-08-20 01:11:00,62.9,59.9,29.86,ESE,111,0.0,0.0,90,0.00,,---,0.00,VWS V13.01,2014-08-20 08:11:00,
2014-08-20 01:16:00,63.0,60.3,29.86,ESE,122,0.0,0.0,91,0.00,,---,0.00,VWS V13.01,2014-08-20 08:16:00,
2014-08-20 01:21:00,62.9,60.5,29.86,ESE,122,0.0,0.0,92,0.00,,---,0.00,VWS V13.01,2014-08-20 08:21:00,
2014-08-20 01:26:00,62.8,60.5,29.86,ESE,122,0.0,0.0,92,0.00,,---,0.00,VWS V13.01,2014-08-20 08:26:00,
2014-08-20 01:31:00,62.7,60.3,29.86,ESE,122,0.0,0.0,92,0.00,,---,0.00,VWS V13.01,2014-08-20 08:31:00,
2014-08-20 01:36:00,62.6,60.2,29.86,ESE,122,0.0,0.0,92,0.00,,---,0.00,VWS V13.01,2014-08-20 08:36:00,
2014-08-20 01:41:00,62.5,60.2,29.85,ESE,123,0.0,0.0,92,0.00,,---,0.00,VWS V13.01,2014-08-20 08:41:00,
2014-08-20 01:46:00,62.4,60.3,29.85,ESE,123,0.0,0.0,93,0.00,,---,0.00,VWS V13.01,2014-08-20 08:46:00,
2014-08-20 01:51:00,62.3,60.2,29.86,ESE,123,0.0,0.0,93,0.00,,---,0.00,VWS V13.01,2014-08-20 08:51:00,
2014-08-20 01:56:00,62.3,60.2,29.86,ESE,123,0.0,0.0,93,0.00,,---,0.00,VWS V13.01,2014-08-20 08:56:00,
2014-08-20 02:01:00,62.2,60.2,29.86,ESE,121,0.0,0.0,93,0.00,,---,0.00,VWS V13.01,2014-08-20 09:01:00,
2014-08-20 02:06:00,62.2,60.2,29.86,SE,126,0.0,0.0,93,0.00,,---,0.00,VWS V13.01,2014-08-20 09:06:00,
2014-08-20 02:11:00,62.2,60.5,29.86,SE,134,0.0,0.0,94,0.00,,---,0.00,VWS V13.01,2014-08-20 09:11:00,
2014-08-20 02:16:00,62.2,60.5,29.86,SE,146,0.0,0.0,94,0.00,,---,0.00,VWS V13.01,2014-08-20 09:16:00,
2014-08-20 02:21:00,62.2,60.5,29.86,South,169,0.0,0.0,94,0.00,,---,0.00,VWS V13.01,2014-08-20 09:21:00,
2014-08-20 02:26:00,62.2,60.5,29.86,SE,129,0.0,0.0,94,0.00,,---,0.00,VWS V13.01,2014-08-20 09:26:00,
2014-08-20 02:31:00,62.2,60.5,29.86,SE,129,0.0,0.0,94,0.00,,---,0.00,VWS V13.01,2014-08-20 09:31:00,
2014-08-20 02:36:00,62.2,60.5,29.86,SE,130,0.0,0.0,94,0.00,,---,0.00,VWS V13.01,2014-08-20 09:36:00,
2014-08-20 02:41:00,62.2,60.5,29.86,SE,129,0.0,0.0,94,0.00,,---,0.00,VWS V13.01,2014-08-20 09:41:00,
2014-08-20 02:46:00,62.2,60.5,29.86,SE,127,0.0,0.0,94,0.00,,---,0.00,VWS V13.01,2014-08-20 09:46:00,
2014-08-20 02:51:00,62.1,60.4,29.86,SE,127,0.0,0.0,94,0.00,,---,0.00,VWS V13.01,2014-08-20 09:51:00,
2014-08-20 02:56:00,62.0,60.3,29.86,SE,135,0.0,0.0,94,0.00,,---,0.00,VWS V13.01,2014-08-20 09:56:00,
2014-08-20 03:01:00,61.9,59.9,29.86,SE,130,0.0,0.0,93,0.00,,---,0.00,VWS V13.01,2014-08-20 10:01:00,
2014-08-20 03:06:00,61.9,59.9,29.87,SE,134,0.0,0.0,93,0.00,,---,0.00,VWS V13.01,2014-08-20 10:06:00,
2014-08-20 03:11:00,61.9,59.9,29.86,SSE,149,0.0,0.0,93,0.00,,---,0.00,VWS V13.01,2014-08-20 10:11:00,
2014-08-20 03:16:00,61.9,59.9,29.87,SE,132,0.0,0.0,93,0.00,,---,0.00,VWS V13.01,2014-08-20 10:16:00,
2014-08-20 03:21:00,61.9,59.9,29.87,SE,127,0.0,0.0,93,0.00,,---,0.00,VWS V13.01,2014-08-20 10:21:00,
2014-08-20 03:26:00,61.9,59.5,29.87,ESE,123,0.0,0.0,92,0.00,,---,0.00,VWS V13.01,2014-08-20 10:26:00,
2014-08-20 03:31:00,61.9,59.5,29.87,SE,144,0.0,0.0,92,0.00,,---,0.00,VWS V13.01,2014-08-20 10:31:00,
2014-08-20 03:36:00,62.0,60.0,29.87,SE,133,0.0,0.0,93,0.00,,---,0.00,VWS V13.01,2014-08-20 10:36:00,
2014-08-20 03:41:00,62.0,60.0,29.87,SSE,153,0.0,0.0,93,0.00,,---,0.00,VWS V13.01,2014-08-20 10:41:00,
2014-08-20 03:46:00,62.1,60.1,29.87,SE,138,0.0,0.0,93,0.00,,---,0.00,VWS V13.01,2014-08-20 10:46:00,
2014-08-20 03:51:00,62.1,60.1,29.87,SE,139,0.0,0.0,93,0.00,,---,0.00,VWS V13.01,2014-08-20 10:51:00,
2014-08-20 03:56:00,62.0,60.0,29.87,SE,139,0.0,0.0,93,0.00,,---,0.00,VWS V13.01,2014-08-20 10:56:00,
2014-08-20 04:01:00,61.9,59.9,29.87,SE,139,0.0,0.0,93,0.00,,---,0.00,VWS V13.01,2014-08-20 11:01:00,
2014-08-20 04:06:00,61.9,59.9,29.87,SSE,158,0.0,0.0,93,0.00,,---,0.00,VWS V13.01,2014-08-20 11:06:00,
2014-08-20 04:11:00,61.9,59.9,29.87,SE,138,0.0,0.0,93,0.00,,---,0.00,VWS V13.01,2014-08-20 11:11:00,
2014-08-20 04:16:00,61.9,59.9,29.87,SE,126,0.0,0.0,93,0.00,,---,0.00,VWS V13.01,2014-08-20 11:16:00,
2014-08-20 04:21:00,61.8,59.8,29.86,SE,130,0.0,0.0,93,0.00,,---,0.00,VWS V13.01,2014-08-20 11:21:00,
2014-08-20 04:26:00,61.8,59.8,29.86,SE,138,0.0,0.0,93,0.00,,---,0.00,VWS V13.01,2014-08-20 11:26:00,
2014-08-20 04:31:00,61.8,59.8,29.86,SE,139,0.0,0.0,93,0.00,,---,0.00,VWS V13.01,2014-08-20 11:31:00,
2014-08-20 04:36:00,61.8,59.8,29.86,SSE,147,0.0,0.0,93,0.00,,---,0.00,VWS V13.01,2014-08-20 11:36:00,
2014-08-20 04:41:00,61.8,59.5,29.86,ESE,123,0.0,0.0,92,0.00,,---,0.00,VWS V13.01,2014-08-20 11:41:00,
2014-08-20 04:46:00,61.8,59.5,29.86,SE,127,0.0,0.0,92,0.00,,---,0.00,VWS V13.01,2014-08-20 11:46:00,
2014-08-20 04:51:00,61.8,59.2,29.86,SE,126,0.0,0.0,91,0.00,,---,0.00,VWS V13.01,2014-08-20 11:51:00,
2014-08-20 04:56:00,61.9,59.5,29.86,ESE,120,0.0,0.0,92,0.00,,---,0.00,VWS V13.01,2014-08-20 11:56:00,
2014-08-20 05:01:00,61.9,59.2,29.86,ESE,119,0.0,0.0,91,0.00,,---,0.00,VWS V13.01,2014-08-20 12:01:00,
2014-08-20 05:06:00,61.9,59.2,29.86,SE,129,0.0,0.0,91,0.00,,---,0.00,VWS V13.01,2014-08-20 12:06:00,
2014-08-20 05:11:00,61.8,58.8,29.86,SE,128,0.0,0.0,90,0.00,,---,0.00,VWS V13.01,2014-08-20 12:11:00,
2014-08-20 05:16:00,61.7,58.7,29.86,ESE,121,0.0,0.0,90,0.00,,---,0.00,VWS V13.01,2014-08-20 12:16:00,
2014-08-20 05:21:00,61.7,58.7,29.86,SE,134,0.0,0.0,90,0.00,,---,0.00,VWS V13.01,2014-08-20 12:21:00,
2014-08-20 05:26:00,61.6,58.6,29.86,ESE,123,0.0,0.0,90,0.00,,---,0.00,VWS V13.01,2014-08-20 12:26:00,
2014-08-20 05:31:00,61.5,58.5,29.86,SW,223,0.0,0.0,90,0.00,,---,0.00,VWS V13.01,2014-08-20 12:31:00,
2014-08-20 05:36:00,61.4,58.1,29.87,SW,223,0.0,0.0,89,0.00,,---,0.00,VWS V13.01,2014-08-20 12:36:00,
2014-08-20 05:41:00,61.3,58.3,29.87,SW,223,0.0,0.0,90,0.00,,---,0.00,VWS V13.01,2014-08-20 12:41:00,
2014-08-20 05:46:00,61.4,58.5,29.87,ESE,115,0.0,0.0,90,0.00,,---,0.00,VWS V13.01,2014-08-20 12:46:00,
2014-08-20 05:51:00,61.4,58.5,29.87,SSE,161,0.0,0.0,90,0.00,,---,0.00,VWS V13.01,2014-08-20 12:51:00,
2014-08-20 05:56:00,61.4,58.1,29.87,ESE,117,0.0,0.0,89,0.00,,---,0.00,VWS V13.01,2014-08-20 12:56:00,
2014-08-20 06:01:00,61.5,58.2,29.88,ESE,119,0.0,0.0,89,0.00,,---,0.00,VWS V13.01,2014-08-20 13:01:00,
2014-08-20 06:06:00,61.6,58.3,29.88,ESE,104,0.0,0.0,89,0.00,,---,0.00,VWS V13.01,2014-08-20 13:06:00,
2014-08-20 06:11:00,61.7,58.4,29.88,ESE,104,0.0,0.0,89,0.00,,---,0.00,VWS V13.01,2014-08-20 13:11:00,
2014-08-20 06:16:00,61.7,58.4,29.88,ESE,121,0.0,0.0,89,0.00,,---,0.00,VWS V13.01,2014-08-20 13:16:00,
2014-08-20 06:21:00,61.8,58.8,29.88,SE,130,0.0,0.0,90,0.00,,---,0.00,VWS V13.01,2014-08-20 13:21:00,
2014-08-20 06:26:00,61.8,58.8,29.88,SE,129,0.0,0.0,90,0.00,,---,0.00,VWS V13.01,2014-08-20 13:26:00,
2014-08-20 06:31:00,61.7,58.7,29.88,SE,126,0.0,0.0,90,0.00,,---,0.00,VWS V13.01,2014-08-20 13:31:00,
2014-08-20 06:36:00,61.7,58.7,29.88,SE,128,0.0,0.0,90,0.00,,---,0.00,VWS V13.01,2014-08-20 13:36:00,
2014-08-20 06:41:00,61.6,58.3,29.88,ESE,105,0.0,0.0,89,0.00,,---,0.00,VWS V13.01,2014-08-20 13:41:00,
2014-08-20 06:46:00,61.6,58.3,29.89,ESE,118,0.0,0.0,89,0.00,,---,0.00,VWS V13.01,2014-08-20 13:46:00,
2014-08-20 06:51:00,61.8,58.5,29.89,SE,125,0.0,0.0,89,0.00,,---,0.00,VWS V13.01,2014-08-20 13:51:00,
2014-08-20 06:56:00,61.8,58.2,29.89,ESE,121,0.0,0.0,88,0.00,,---,0.00,VWS V13.01,2014-08-20 13:56:00,
2014-08-20 07:01:00,61.9,58.3,29.89,ESE,103,0.0,0.0,88,0.00,,---,0.00,VWS V13.01,2014-08-20 14:01:00,
2014-08-20 07:06:00,62.0,58.4,29.89,SE,126,0.0,0.0,88,0.00,,---,0.00,VWS V13.01,2014-08-20 14:06:00,
2014-08-20 07:11:00,62.1,58.2,29.89,SE,126,0.0,0.0,87,0.00,,---,0.00,VWS V13.01,2014-08-20 14:11:00,
2014-08-20 07:16:00,62.1,58.5,29.89,SE,134,0.0,0.0,88,0.00,,---,0.00,VWS V13.01,2014-08-20 14:16:00,
2014-08-20 07:21:00,62.2,58.6,29.89,SSE,151,0.0,0.0,88,0.00,,---,0.00,VWS V13.01,2014-08-20 14:21:00,
2014-08-20 07:26:00,62.2,58.9,29.90,South,173,0.0,0.0,89,0.00,,---,0.00,VWS V13.01,2014-08-20 14:26:00,
2014-08-20 07:31:00,62.2,58.9,29.90,SSE,150,0.0,0.0,89,0.00,,---,0.00,VWS V13.01,2014-08-20 14:31:00,
2014-08-20 07:36:00,62.2,58.9,29.90,SE,146,0.0,0.0,89,0.00,,---,0.00,VWS V13.01,2014-08-20 14:36:00,
2014-08-20 07:41:00,62.2,58.6,29.90,SE,126,0.0,0.0,88,0.00,,---,0.00,VWS V13.01,2014-08-20 14:41:00,
2014-08-20 07:46:00,62.2,58.6,29.90,SSE,163,0.0,0.0,88,0.00,,---,0.00,VWS V13.01,2014-08-20 14:46:00,
2014-08-20 07:51:00,62.3,58.7,29.90,SE,135,0.0,0.0,88,0.00,,---,0.00,VWS V13.01,2014-08-20 14:51:00,
2014-08-20 07:56:00,62.3,58.7,29.90,SE,135,0.0,0.0,88,0.00,,---,0.00,VWS V13.01,2014-08-20 14:56:00,
2014-08-20 08:01:00,62.3,58.7,29.91,SE,138,0.0,0.0,88,0.00,,---,0.00,VWS V13.01,2014-08-20 15:01:00,
2014-08-20 08:06:00,62.3,58.7,29.91,ESE,111,0.0,0.0,88,0.00,,---,0.00,VWS V13.01,2014-08-20 15:06:00,
2014-08-20 08:11:00,62.3,58.4,29.91,ESE,115,0.0,0.0,87,0.00,,---,0.00,VWS V13.01,2014-08-20 15:11:00,
2014-08-20 08:16:00,62.4,58.8,29.91,East,82,0.0,0.0,88,0.00,,---,0.00,VWS V13.01,2014-08-20 15:16:00,
2014-08-20 08:21:00,62.5,58.9,29.91,ESE,117,0.0,0.0,88,0.00,,---,0.00,VWS V13.01,2014-08-20 15:21:00,
2014-08-20 08:26:00,62.5,58.9,29.91,SE,143,0.0,0.0,88,0.00,,---,0.00,VWS V13.01,2014-08-20 15:26:00,
2014-08-20 08:31:00,62.5,58.9,29.91,ESE,120,0.0,0.0,88,0.00,,---,0.00,VWS V13.01,2014-08-20 15:31:00,
2014-08-20 08:36:00,62.5,58.9,29.91,SSE,149,0.0,0.0,88,0.00,,---,0.00,VWS V13.01,2014-08-20 15:36:00,
2014-08-20 08:41:00,62.5,58.9,29.92,ESE,113,0.0,0.0,88,0.00,,---,0.00,VWS V13.01,2014-08-20 15:41:00,
2014-08-20 08:46:00,62.6,59.0,29.92,SSE,152,0.0,0.0,88,0.00,,---,0.00,VWS V13.01,2014-08-20 15:46:00,
2014-08-20 08:51:00,62.7,59.4,29.92,SSE,153,0.0,0.0,89,0.00,,---,0.00,VWS V13.01,2014-08-20 15:51:00,
2014-08-20 08:56:00,62.5,59.5,29.92,SSE,153,0.0,0.0,90,0.00,,---,0.00,VWS V13.01,2014-08-20 15:56:00,
2014-08-20 09:01:00,62.5,59.5,29.92,SSE,153,0.0,0.0,90,0.00,,---,0.00,VWS V13.01,2014-08-20 16:01:00,
2014-08-20 09:06:00,62.5,59.5,29.92,SSE,153,0.0,0.0,90,0.00,,---,0.00,VWS V13.01,2014-08-20 16:06:00,
2014-08-20 09:11:00,62.5,59.5,29.92,SSE,148,0.0,0.0,90,0.00,,---,0.00,VWS V13.01,2014-08-20 16:11:00,
2014-08-20 09:16:00,62.5,59.5,29.92,SE,143,0.0,0.0,90,0.00,,---,0.00,VWS V13.01,2014-08-20 16:16:00,
2014-08-20 09:21:00,62.6,59.6,29.92,ESE,119,0.0,0.0,90,0.00,,---,0.00,VWS V13.01,2014-08-20 16:21:00,
2014-08-20 09:26:00,62.7,59.7,29.93,ESE,119,0.0,0.0,90,0.00,,---,0.00,VWS V13.01,2014-08-20 16:26:00,
2014-08-20 09:31:00,62.7,59.4,29.93,South,179,0.0,0.0,89,0.00,,---,0.00,VWS V13.01,2014-08-20 16:31:00,
2014-08-20 09:36:00,62.6,59.3,29.93,South,173,0.0,0.0,89,0.00,,---,0.00,VWS V13.01,2014-08-20 16:36:00,
2014-08-20 09:41:00,62.5,59.2,29.93,South,181,0.0,0.0,89,0.00,,---,0.00,VWS V13.01,2014-08-20 16:41:00,
2014-08-20 09:46:00,62.5,59.2,29.93,South,181,0.0,0.0,89,0.00,,---,0.00,VWS V13.01,2014-08-20 16:46:00,
2014-08-20 09:51:00,62.5,59.2,29.93,South,182,0.0,0.0,89,0.00,,---,0.00,VWS V13.01,2014-08-20 16:51:00,
2014-08-20 09:56:00,62.5,58.9,29.93,South,182,0.0,0.0,88,0.00,,---,0.00,VWS V13.01,2014-08-20 16:56:00,
2014-08-20 10:01:00,62.6,59.0,29.93,South,182,0.0,0.0,88,0.00,,---,0.00,VWS V13.01,2014-08-20 17:01:00,
2014-08-20 10:06:00,62.7,59.1,29.93,South,190,0.0,0.0,88,0.00,,---,0.00,VWS V13.01,2014-08-20 17:06:00,
2014-08-20 10:11:00,62.6,58.7,29.94,South,177,0.0,0.0,87,0.00,,---,0.00,VWS V13.01,2014-08-20 17:11:00,
2014-08-20 10:16:00,62.7,59.1,29.94,South,174,0.0,0.0,88,0.00,,---,0.00,VWS V13.01,2014-08-20 17:16:00,
2014-08-20 10:21:00,62.9,59.3,29.94,SSW,192,0.0,0.0,88,0.00,,---,0.00,VWS V13.01,2014-08-20 17:21:00,
2014-08-20 10:26:00,63.1,59.2,29.94,South,175,0.0,0.0,87,0.00,,---,0.00,VWS V13.01,2014-08-20 17:26:00,
2014-08-20 10:31:00,63.3,59.4,29.94,SSW,192,0.0,0.0,87,0.00,,---,0.00,VWS V13.01,2014-08-20 17:31:00,
2014-08-20 10:36:00,63.5,59.6,29.94,SSW,195,0.0,0.0,87,0.00,,---,0.00,VWS V13.01,2014-08-20 17:36:00,
2014-08-20 10:41:00,63.5,59.6,29.95,SSW,194,0.0,0.0,87,0.00,,---,0.00,VWS V13.01,2014-08-20 17:41:00,
2014-08-20 10:46:00,63.4,59.5,29.95,SSW,194,0.0,0.0,87,0.00,,---,0.00,VWS V13.01,2014-08-20 17:46:00,
2014-08-20 10:51:00,63.4,59.5,29.95,SE,140,0.0,0.0,87,0.00,,---,0.00,VWS V13.01,2014-08-20 17:51:00,
2014-08-20 10:56:00,63.6,59.7,29.95,SSE,167,0.0,0.0,87,0.00,,---,0.00,VWS V13.01,2014-08-20 17:56:00,
2014-08-20 11:01:00,63.7,59.8,29.95,SSW,205,0.0,0.0,87,0.00,,---,0.00,VWS V13.01,2014-08-20 18:01:00,
2014-08-20 11:06:00,63.9,60.0,29.95,SSW,211,0.0,0.0,87,0.00,,---,0.00,VWS V13.01,2014-08-20 18:06:00,
2014-08-20 11:11:00,63.9,59.6,29.95,SSW,198,0.0,0.0,86,0.00,,---,0.00,VWS V13.01,2014-08-20 18:11:00,
2014-08-20 11:16:00,63.9,60.0,29.95,SSW,198,0.0,0.0,87,0.00,,---,0.00,VWS V13.01,2014-08-20 18:16:00,
2014-08-20 11:21:00,63.9,60.0,29.95,South,178,0.0,0.0,87,0.00,,---,0.00,VWS V13.01,2014-08-20 18:21:00,
2014-08-20 11:26:00,64.0,59.7,29.95,South,178,0.0,0.0,86,0.00,,---,0.00,VWS V13.01,2014-08-20 18:26:00,
2014-08-20 11:31:00,64.1,59.8,29.95,SSE,156,0.0,0.0,86,0.00,,---,0.00,VWS V13.01,2014-08-20 18:31:00,
2014-08-20 11:36:00,64.4,60.5,29.95,SSW,192,0.0,0.0,87,0.00,,---,0.00,VWS V13.01,2014-08-20 18:36:00,
2014-08-20 11:41:00,64.5,60.2,29.95,South,186,0.0,0.0,86,0.00,,---,0.00,VWS V13.01,2014-08-20 18:41:00,
2014-08-20 11:46:00,64.5,59.9,29.95,SSW,204,0.0,0.0,85,0.00,,---,0.00,VWS V13.01,2014-08-20 18:46:00,
2014-08-20 11:51:00,64.5,60.2,29.95,South,170,0.0,0.0,86,0.00,,---,0.00,VWS V13.01,2014-08-20 18:51:00,
2014-08-20 11:56:00,64.7,60.4,29.95,South,181,0.0,0.0,86,0.00,,---,0.00,VWS V13.01,2014-08-20 18:56:00,
2014-08-20 12:01:00,65.1,61.5,29.95,ESE,111,0.0,0.0,88,0.00,,---,0.00,VWS V13.01,2014-08-20 19:01:00,
2014-08-20 12:06:00,65.3,61.3,29.95,South,170,0.0,0.0,87,0.00,,---,0.00,VWS V13.01,2014-08-20 19:06:00,
2014-08-20 12:11:00,65.3,61.7,29.95,South,182,0.0,0.0,88,0.00,,---,0.00,VWS V13.01,2014-08-20 19:11:00,
2014-08-20 12:16:00,65.6,61.6,29.95,South,176,0.0,0.0,87,0.00,,---,0.00,VWS V13.01,2014-08-20 19:16:00,
2014-08-20 12:21:00,65.8,61.8,29.95,SSE,158,0.0,0.0,87,0.00,,---,0.00,VWS V13.01,2014-08-20 19:21:00,
2014-08-20 12:26:00,65.9,61.6,29.96,SE,133,0.0,0.0,86,0.00,,---,0.00,VWS V13.01,2014-08-20 19:26:00,
2014-08-20 12:31:00,65.6,61.3,29.96,SE,138,0.0,0.0,86,0.00,,---,0.00,VWS V13.01,2014-08-20 19:31:00,
2014-08-20 12:36:00,65.4,61.1,29.96,East,82,0.0,0.0,86,0.00,,---,0.00,VWS V13.01,2014-08-20 19:36:00,
2014-08-20 12:41:00,65.5,61.5,29.96,SSW,205,0.0,0.0,87,0.00,,---,0.00,VWS V13.01,2014-08-20 19:41:00,
2014-08-20 12:46:00,65.4,61.1,29.96,ENE,61,0.0,0.0,86,0.00,,---,0.00,VWS V13.01,2014-08-20 19:46:00,
2014-08-20 12:51:00,65.5,61.9,29.96,South,189,0.0,0.0,88,0.00,,---,0.00,VWS V13.01,2014-08-20 19:51:00,
2014-08-20 12:56:00,65.3,61.7,29.96,SSW,209,0.0,0.0,88,0.00,,---,0.00,VWS V13.01,2014-08-20 19:56:00,
2014-08-20 13:01:00,64.8,61.5,29.96,SSW,206,0.0,0.0,89,0.00,,---,0.00,VWS V13.01,2014-08-20 20:01:00,
2014-08-20 13:06:00,64.3,61.0,29.96,SSE,167,0.0,0.0,89,0.00,,---,0.00,VWS V13.01,2014-08-20 20:06:00,
2014-08-20 13:11:00,63.9,61.2,29.96,SSE,153,0.0,0.0,91,0.00,,---,0.00,VWS V13.01,2014-08-20 20:11:00,
2014-08-20 13:16:00,63.8,61.4,29.96,SSE,150,0.0,0.0,92,0.00,,---,0.00,VWS V13.01,2014-08-20 20:16:00,
2014-08-20 13:21:00,63.6,61.2,29.96,ESE,119,0.0,0.0,92,0.00,,---,0.00,VWS V13.01,2014-08-20 20:21:00,
2014-08-20 13:26:00,63.5,61.4,29.96,SE,126,0.0,0.0,93,0.00,,---,0.00,VWS V13.01,2014-08-20 20:26:00,
2014-08-20 13:31:00,63.3,61.2,29.96,SE,127,0.0,0.0,93,0.00,,---,0.00,VWS V13.01,2014-08-20 20:31:00,
2014-08-20 13:36:00,63.2,61.2,29.96,SSE,163,0.0,0.0,93,0.00,,---,0.00,VWS V13.01,2014-08-20 20:36:00,
2014-08-20 13:41:00,63.4,61.7,29.96,SE,140,0.0,0.0,94,0.00,,---,0.00,VWS V13.01,2014-08-20 20:41:00,
2014-08-20 13:46:00,63.4,61.7,29.96,SSE,150,0.0,0.0,94,0.00,,---,0.00,VWS V13.01,2014-08-20 20:46:00,
2014-08-20 13:51:00,63.2,61.5,29.96,ESE,119,0.0,0.0,94,0.00,,---,0.00,VWS V13.01,2014-08-20 20:51:00,
2014-08-20 13:56:00,63.2,61.5,29.95,ESE,111,0.0,0.0,94,0.00,,---,0.00,VWS V13.01,2014-08-20 20:56:00,
2014-08-20 14:01:00,63.4,61.7,29.95,East,101,0.0,0.0,94,0.00,,---,0.00,VWS V13.01,2014-08-20 21:01:00,
2014-08-20 14:06:00,63.8,61.4,29.95,SE,136,0.0,0.0,92,0.00,,---,0.00,VWS V13.01,2014-08-20 21:06:00,
2014-08-20 14:11:00,63.9,61.2,29.95,SE,130,0.0,0.0,91,0.00,,---,0.00,VWS V13.01,2014-08-20 21:11:00,
2014-08-20 14:16:00,64.0,61.0,29.95,SE,134,0.0,0.0,90,0.00,,---,0.00,VWS V13.01,2014-08-20 21:16:00,
2014-08-20 14:21:00,64.2,61.5,29.94,ESE,111,0.0,0.0,91,0.00,,---,0.00,VWS V13.01,2014-08-20 21:21:00,
2014-08-20 14:26:00,64.5,61.8,29.95,SSW,209,0.0,0.0,91,0.00,,---,0.00,VWS V13.01,2014-08-20 21:26:00,
2014-08-20 14:31:00,64.9,62.2,29.95,SSW,200,0.0,0.0,91,0.00,,---,0.00,VWS V13.01,2014-08-20 21:31:00,
2014-08-20 14:36:00,64.8,61.2,29.95,South,170,0.0,0.0,88,0.00,,---,0.00,VWS V13.01,2014-08-20 21:36:00,
2014-08-20 14:41:00,64.5,60.9,29.95,SSW,201,0.0,0.0,88,0.00,,---,0.00,VWS V13.01,2014-08-20 21:41:00,
2014-08-20 14:46:00,64.3,60.7,29.95,South,170,0.0,0.0,88,0.00,,---,0.00,VWS V13.01,2014-08-20 21:46:00,
2014-08-20 14:51:00,64.1,60.5,29.95,South,175,0.0,0.0,88,0.00,,---,0.00,VWS V13.01,2014-08-20 21:51:00,
2014-08-20 14:56:00,64.0,60.7,29.95,South,171,0.0,0.0,89,0.00,,---,0.00,VWS V13.01,2014-08-20 21:56:00,
2014-08-20 15:01:00,64.0,60.4,29.94,South,173,0.0,0.0,88,0.00,,---,0.00,VWS V13.01,2014-08-20 22:01:00,
2014-08-20 15:06:00,63.9,60.3,29.94,South,173,0.0,0.0,88,0.00,,---,0.00,VWS V13.01,2014-08-20 22:06:00,